Flag for Costa Rica Weather past 2 weeks in Alajuela, Costa Rica

Now
70 °F

Passing clouds.


Feels Like: 70 °F
Forecast: 67 / 83 °F
Wind: 12 mph from Southeast

Location: Juan Santamaria

Current Time: Dec 29, 2014 at 5:02:50 AM

Latest Report: Dec 29, 2014 at 4:00 AM


Visibility: N/A

Pressure: 29.98 "Hg

Humidity: 69%

Dew point: 59 °F

Location of AlajuelaLocation

Historic Weather in Alajuela — Graph

°F

Alajuela temperature yesterday

Maximum temperature yesterday: 82 °F (at 1:00 PM)
Minimum temperature yesterday: 68 °F (at 4:00 AM)
Average temperature yesterday: 74 °F

Past Weeks' High & Low Weather Summary

 TemperatureHumidityPressure
High84 °F (Dec 17, 12:00 PM)94% (Dec 23, 9:00 PM)30.11 "Hg (Dec 23, 9:00 PM)
Low63 °F (Dec 14, 4:00 AM)33% (Dec 22, 2:00 PM)29.88 "Hg (Dec 23, 2:00 PM)
Average72 °F66%30.00 "Hg
* Reported Dec 14 4:00 AM — Dec 29 4:00 AM, Alajuela, Weather by CustomWeather, © 2014

Note: Actual official high and low records may vary slightly from our data, if they occured in-between our weather recording intervals... More about our weather records

Advertising

Alajuela weather history for previous 24 hours

 ConditionsComfort  
Time TempWeatherWind HumidityBarometerVisibility
4:00 AM
Dec 29
70 °FPassing clouds.12 mph69%29.98 "HgN/A
3:00 AM70 °FPassing clouds.12 mph69%29.98 "HgN/A
2:00 AM70 °FPassing clouds.12 mph69%29.99 "HgN/A
1:00 AM70 °FPassing clouds.12 mph69%30.00 "HgN/A
12:00 AM72 °FPassing clouds.12 mph65%30.02 "HgN/A
11:00 PM
Dec 28
72 °FPassing clouds.13 mph65%30.03 "HgN/A
10:00 PM72 °FPassing clouds.12 mph65%30.04 "HgN/A
9:00 PM73 °FPassing clouds.16 mph61%30.03 "HgN/A
8:00 PM73 °FPassing clouds.14 mph57%30.03 "HgN/A
7:00 PM73 °FPassing clouds.15 mph57%30.01 "HgN/A
6:00 PM73 °FPassing clouds.12 mph61%29.99 "HgN/A
5:00 PM75 °FPassing clouds.14 mph61%29.98 "HgN/A
4:00 PM81 °FPassing clouds.15 mph48%29.95 "HgN/A
3:00 PM82 °FScattered clouds.14 mph42%29.95 "HgN/A
2:00 PM82 °FPassing clouds.14 mph45%29.96 "HgN/A
1:00 PM82 °FPassing clouds.16 mph45%29.98 "HgN/A
12:00 PM81 °FPassing clouds.14 mph51%30.01 "HgN/A
11:00 AM79 °FPassing clouds.16 mph54%30.03 "HgN/A
10:00 AM79 °FPassing clouds.14 mph54%30.04 "HgN/A
9:00 AM77 °FPassing clouds.14 mph57%30.04 "HgN/A
8:00 AM75 °FSunny.12 mph61%30.03 "Hg10 mi
7:00 AM72 °FSunny.12 mph65%30.01 "Hg10 mi
6:00 AM68 °FSunny.9 mph73%30.00 "Hg10 mi
5:00 AM70 °FClear.13 mph69%29.98 "Hg10 mi
Weather by CustomWeather, © 2014

See weather overviewHow to use our weather pages